Regional Weather Roundup
Issued by NWS Charleston, SC

Home | Current Version | Previous Version | Text Only | Print | Product List | Glossary On
Versions: 1 2 3 4 5 6 7 8 9 10 11 12 13 14 15 16 17 18 19 20 21 22 23 24 25 26 27 28 29 30 31 32 33 34 35 36 37 38 39 40 41 42 43 44 45 46 47 48 49 50
000
ASUS42 KCHS 221427
RWRCHS

REGIONAL WEATHER ROUNDUP
NATIONAL WEATHER SERVICE CHARLESTON SC
1000 AM EDT SUN OCT 22 2017

NOTE: "FAIR" INDICATES FEW OR NO CLOUDS BELOW 12,000 FEET WITH NO
SIGNIFICANT WEATHER AND/OR OBSTRUCTIONS TO VISIBILITY.

NOT ALL STATIONS ARE QUALITY CONTROLLED. USE DATA WITH CAUTION...
ESPECIALLY DEWPOINT OBSERVATIONS.

SCZ027-030-031-034>040-042>050-221500-
...SOUTHEAST SOUTH CAROLINA...

CITY           SKY/WX    TMP DP  RH WIND       PRES   REMARKS
N CHARLESTON   CLOUDY    73  68  84 NE9       30.29R
WATERFRONT PRK NOT AVBL
JOHNS ISLAND   CLOUDY    75  68  78 NE8       30.28S
PINOPOLIS        N/A     70  68  94 E7        30.22R
MONCKS CORNER  FAIR      72  68  88 E8        30.30S
SUMMERVILLE    CLOUDY    72  66  83 E3        30.30S
BEAUFORT MCAS  CLOUDY    73  68  84 MISG      30.27R
BEAUFORT ARPT  CLOUDY    73  66  78 NE8       30.26S
HILTON HEAD IS DRIZZLE   73  68  83 NE9       30.27R
WALTERBORO     CLOUDY    70  66  88 E9        30.29S
ALLENDALE        N/A     73  66  78 E6          N/A

...SOUTHERN MIDLANDS AND PEE DEE...

CITY           SKY/WX    TMP DP  RH WIND       PRES   REMARKS
GEORGETOWN     CLOUDY    72  72 100 NE9       30.32S
KINGSTREE      FAIR      72  64  78 E6        30.32S
ORANGEBURG     MOSUNNY   69  64  84 E7        30.31R
BARNWELL         N/A     75  66  73 E8        30.30S
AIKEN          FAIR      70  61  73 NE7       30.36R
MANNING        FAIR      72  50  46 MISG      30.32R
COLUMBIA       MOSUNNY   69  62  78 E3        30.32R
SUMTER         SUNNY     68  61  78 E5        30.31R
FLORENCE       SUNNY     66  62  87 E8        30.34S
MYRTLE BEACH   MOSUNNY   73  67  81 E13       30.33S
N MYRTLE BEACH MOSUNNY   73  66  78 E12       30.32S

$$

GAZ063-065-086>088-099>101-113>116-118-119-134>141-150-221500-
...SOUTHEAST GEORGIA...

CITY           SKY/WX    TMP DP  RH WIND       PRES   REMARKS
SAVANNAH ARPT  PTSUNNY   73  68  84 E7        30.26R
HUNTER AAF     DRIZZLE   72  70  94 E8        30.24R FOG
FORT STEWART   DRIZZLE   72  68  88 E8        30.24R
STATESBORO     MOSUNNY   75  61  61 E7        30.27R
SYLVANIA       MOSUNNY   72  67  84 E7        30.28S
CLAXTON        PTSUNNY   74  67  77 NE7       30.26S

...CSRA...CENTRAL AND FAR SOUTHEAST GEORGIA...

CITY           SKY/WX    TMP DP  RH WIND       PRES   REMARKS
THOMSON        SUNNY     71  63  76 S10       30.35S
AUGUSTA-BUSH   MOSUNNY   72  65  78 SE5       30.29S
AUGUSTA-DANIEL SUNNY     72  63  73 E9        30.31R
SWAINSBORO     CLOUDY    72  64  78 E9        30.27F
VIDALIA        SUNNY     77  68  73 E8        30.25S
EASTMAN        PTSUNNY   74  58  56 E6        30.26F
HAZLEHURST     FAIR      77  62  61 E9        30.23S
ALMA           MOSUNNY   73  68  84 VRB5      30.24R
WAYCROSS       MOSUNNY   74  71  88 E7        30.23S
JESUP          NOT AVBL
BAXLEY         PTSUNNY   72  72 100 E10       30.23F
BRUNSWICK      CLOUDY    77  70  78 NE12      30.23F
SAINT SIMONS   MOSUNNY   78  73  84 NE13      30.22R

$$

SCZ027-028-034-036>038-045-046-048>050-GAZ119-141-221500-
...LAKE AND SUPPLEMENTAL COASTAL OBSERVATIONS...

STATION/POSITION TIME  TEMP    WIND        PRES    WAVE   SWELL
                       AIR SEA DIR/SP/G            HT/PER HT/PER/DIR
                 (UTC) (F)     (DEG/KT/KT) (MB)    (FT/S) (FT/S/D)
WINYAH BAY       1345   74      70/ 12     1026.0S
LAKE MURRAY      1350   67      80/  7/  8 1026.1R
ACE BASIN NERRS  1345   72      30/  3     1025.0S
FORT PULASKI     1400   72 73   90/ 13/ 16 1025.0
SAPELO ISLAND    NOT AVBL

$$

ANZ835-935-AMZ111-154-330-350-352-354-370-450-454-472-221500-
...C-MAN AND BUOY OBSERVATIONS...

STATION/POSITION TIME  TEMP    WIND        PRES    WAVE   SWELL
                       AIR SEA DIR/SP/G            HT/PER HT/PER/DIR
                 (UTC) (F)     (DEG/KT/KT) (MB)    (FT/S) (FT/S/D)
BUOY 41004       1410   79 79   90/ 17/ 21 1024.5
BUOY 41008       1350   75 77   60/ 12/ 16 1023.3R   5/ 7   3/130/ 7
FOLLY BEACH CMAN 1400   73      40/ 12/ 14 1025.9R
CAPERS NEARSHORE 1408   71 73   50/ 10/ 16 1025.2R
FRIPP NEARSHORE  1408   74      50/ 12/ 16   N/A


STATION/POSITION TIME  TEMP    WIND        PRES    WAVE   SWELL
                       AIR SEA DIR/SP/G            HT/PER HT/PER/DIR
                 (UTC) (F)     (DEG/KT/KT) (MB)    (FT/S) (FT/S/D)
5E ST. MARYS GA  1400      77                N/A     5/ 7
FRYING PAN BUOY  1410   76 76  100/ 10/ 12 1026.7
BUOY 41025       1350   76 81   70/  6/ 10 1028.1R   3/ 8   2/130/ 8
CAPE LOOKOUT NC  1400   71     360/ 10/ 12 1027.6R
BUOY 41002       1350   77 80  100/ 12/ 14 1026.3R   4/ 8   3/ 90/ 8
BUOY 41010       NOT AVBL
ST AUGUSTINE FL  1400   78 77   90/ 11/ 14 1022.7R


$$




USA.gov is the U.S. government's official web portal to all federal, state and local government web resources and services.